Lancaster, OH

10:08 AM EDT on April 21, 2018 (GMT -0400)
Fairfield County

Weather History for KLHQ - November, 2014

Change the Weather History Date:

Thursday, November 13, 2014

  Actual Average Record
Temperature  
Mean Temperature 30 °F -  
Max Temperature 34 °F 50 °F 79 °F (1955)
Min Temperature 27 °F 29 °F 17 °F (1977)
Degree Days  
Heating Degree Days 34    
Moisture  
Dew Point 21 °F    
Average Humidity 69    
Maximum Humidity 75    
Minimum Humidity 61    
Precipitation  
Precipitation 0.00 in - - ()
Sea Level Pressure  
Sea Level Pressure 30.23 in    
Wind  
Wind Speed 7 mph (WNW)    
Max Wind Speed 13 mph    
Max Gust Speed 17 mph    
Visibility 8 miles    
Events Snow    
Averages and records for this station are not official NWS values.
T = Trace of Precipitation, MM = Missing Value Source: NWS Daily Summary

Daily Weather History Graph

Daily Weather History Graph

Search for Another Location

Airport or City:

Astronomy

Nov. 13, 2014 Rise Set
Actual Time 7:12 AM EST 5:16 PM EST
Civil Twilight 6:44 AM EST 5:45 PM EST
Nautical Twilight 6:11 AM EST 6:17 PM EST
Astronomical Twilight 5:39 AM EST 6:49 PM EST
Moon 11:31 PM EST (11/13) 12:32 PM EST (11/13)
Length of Visible Light 11h 01m
Length of Day
10h 03m
Waning Gibbous, 59% of the Moon is Illuminated
Nov 13
Waning Gibbous
Nov 14
Last Quarter
Nov 22
New
Nov 29
First Quarter
Dec 6
Full

Hourly Weather History & Observations

Time (EST) Temp. Windchill Dew Point Humidity Pressure Visibility Wind Dir Wind Speed Gust Speed Precip Events Conditions
12:53 AM 34.0 °F 29.8 °F 25.0 °F 70% 30.24 in 10.0 mi WNW 4.6 mph - N/A   Overcast
1:53 AM 33.1 °F 26.1 °F 24.1 °F 70% 30.23 in 10.0 mi WNW 8.1 mph - N/A   Overcast
2:53 AM 32.0 °F 25.6 °F 24.1 °F 73% 30.23 in 10.0 mi WNW 6.9 mph - N/A   Overcast
3:53 AM 32.0 °F 27.5 °F 24.1 °F 73% 30.23 in 10.0 mi WNW 4.6 mph - N/A   Overcast
4:53 AM 32.0 °F 24.2 °F 24.1 °F 73% 30.22 in 10.0 mi WNW 9.2 mph - N/A   Overcast
5:42 AM 30.9 °F 25.2 °F 21.9 °F 69% 30.21 in 10.0 mi West 5.8 mph - N/A   Overcast
5:53 AM 30.9 °F 25.2 °F 21.9 °F 69% 30.22 in 10.0 mi NW 5.8 mph - N/A   Overcast
6:19 AM 30.9 °F 23.5 °F 23.0 °F 72% 30.20 in 10.0 mi WNW 8.1 mph - N/A   Overcast
6:53 AM 30.9 °F 26.2 °F 21.9 °F 69% 30.23 in 10.0 mi West 4.6 mph - N/A   Overcast
7:53 AM 30.9 °F 25.2 °F 21.9 °F 69% 30.24 in 8.0 mi West 5.8 mph - N/A   Overcast
8:24 AM 30.9 °F 26.2 °F 21.9 °F 69% 30.21 in 7.0 mi WNW 4.6 mph - N/A   Overcast
8:53 AM 30.9 °F 24.3 °F 21.9 °F 69% 30.23 in 7.0 mi WNW 6.9 mph - N/A   Overcast
9:53 AM 30.9 °F 22.8 °F 21.9 °F 69% 30.22 in 6.0 mi WNW 9.2 mph - N/A   Haze
10:53 AM 30.9 °F 24.3 °F 23.0 °F 72% 30.23 in 6.0 mi West 6.9 mph - N/A   Haze
11:53 AM 30.9 °F 23.5 °F 21.0 °F 67% 30.22 in 10.0 mi West 8.1 mph - N/A   Overcast
12:53 PM 30.0 °F 20.0 °F 21.0 °F 69% 30.22 in 7.0 mi WNW 12.7 mph 17.3 mph N/A   Overcast
1:45 PM 30.9 °F 23.5 °F 19.0 °F 61% 30.19 in 10.0 mi West 8.1 mph - N/A   Overcast
1:53 PM 30.9 °F 21.2 °F 19.0 °F 61% 30.21 in 10.0 mi West 12.7 mph - N/A   Overcast
2:38 PM 30.9 °F 23.5 °F 19.0 °F 61% 30.19 in 10.0 mi West 8.1 mph - N/A   Overcast
2:53 PM 30.0 °F 20.0 °F 19.9 °F 66% 30.22 in 9.0 mi WNW 12.7 mph - N/A   Overcast
3:53 PM 30.0 °F 21.7 °F 19.9 °F 66% 30.22 in 7.0 mi WNW 9.2 mph - N/A   Overcast
4:24 PM 30.0 °F 23.2 °F 21.0 °F 69% 30.20 in 8.0 mi West 6.9 mph - N/A   Overcast
4:53 PM 30.0 °F 21.1 °F 19.9 °F 66% 30.24 in 8.0 mi West 10.4 mph - N/A   Overcast
5:53 PM 28.9 °F 19.2 °F 19.0 °F 67% 30.25 in 8.0 mi WNW 11.5 mph - 0.00 in Snow Light Snow
6:53 PM 27.0 °F 18.7 °F 19.0 °F 72% 30.27 in 9.0 mi West 8.1 mph - 0.00 in   Mostly Cloudy
7:53 PM 28.0 °F 19.3 °F 19.9 °F 72% 30.28 in 9.0 mi West 9.2 mph - N/A   Overcast
8:53 PM 28.0 °F 20.0 °F 19.9 °F 72% 30.29 in 6.0 mi West 8.1 mph - 0.00 in Snow Light Snow
9:53 PM 28.0 °F 20.8 °F 21.0 °F 75% 30.29 in 4.0 mi West 6.9 mph - 0.00 in Snow Light Snow
10:53 PM 27.0 °F 18.7 °F 19.9 °F 75% 30.29 in 4.0 mi WNW 8.1 mph - 0.00 in Snow Light Snow
11:53 PM 27.0 °F 18.0 °F 19.0 °F 72% 30.28 in 9.0 mi WNW 9.2 mph - 0.00 in   Overcast